COSMOS 505

导读

COSMOS 505(宇宙505)是苏联(独联体CIS)于1972年7月20日08:00发射的军用侦察卫星,隶属于苏联“宇宙”系列卫星家族。该系列卫星承担军事侦察、空间技术试验等多重任务,是冷战时期苏联航天军事活动的重要组成部分。作为早期低轨道军事卫星,它为苏联积累了空间观测与航天技术经验,在苏联航天发展历程中具备标志性意义,目前已完成任务退役。

Basic Information
目录编号:
6118
目录名称:
COSMOS 505
国际标识:
1972-057B
轨道中心:
EARTH
卫星名称:
COSMOS 505
卫星全名:
--
卫星状态:
在轨 (已飞行19779 天)
发射日期:
1972-07-20 UTC
国别 :
俄罗斯(独联体) (CIS)
星等 :
--
This satellite is enrolled in the Space Conjunction Data Service (SCDS) and the current flight risk assessment level is: No High Risk
Orbit Information
数据来源 国际轨道数据 AOE轨道数据
星历时间 2026-09-14T07:26:18+0800
6小时前
查看轨道信息
2026-09-09T23:00:00+0800
4天前
查看轨道信息
半长轴 7801.811km 7801.815km
偏心率 0.0092117 0.0092035
轨道倾角 74.024° 74.024°
近地点辐角 69.135° 75.774°
升交点赤经 92.931° 98.823°
平近点角 83.425° 147.382°
近地点 1351.806km 1351.873km
远地点 1495.542km 1495.483km
周期 114.302分钟 114.302分钟
每日圈数 12.598234 12.598225
Detailed Information
使用方式:
暂无
2D Orbit Map
3D Orbit Map
Orbit Altitude Analysis Chart
Orbit Inclination Analysis Chart
Orbit Comprehensive Analysis Chart
View Comprehensive Chart
Miss Distance Evolution Trend with All Objects Subscribe to Flight Safety Assessment
Collision Probability Evolution Trend with All Objects Subscribe to Flight Safety Assessment